• In Belgium
  • List of Countries
  • For 7 days
  • Water Temperature
  • Satellite Maps
  • Weather Map
  • Weather Widgets
  • user-avatar
    Login

    Hourly Weather Korfu

    Today, 25 February, Sunday

    Time Temperature Precipitation Wind Pressure Humidity
    00:00 +9°C° 0.2 mm 3 mps 752 mmHg 88%
    01:00 +9°C° 0 mm 3 mps 751 mmHg 86%
    02:00 +9°C° 0.2 mm 3 mps 751 mmHg 85%
    03:00 +9°C° 0.2 mm 3 mps 751 mmHg 84%
    04:00 +8°C° 0.2 mm 3 mps 751 mmHg 84%
    05:00 +8°C° 0.2 mm 4 mps 751 mmHg 84%
    06:00 +8°C° 0.2 mm 4 mps 751 mmHg 84%
    07:00 +8°C° 0.2 mm 4 mps 752 mmHg 85%
    08:00 +10°C° 0.3 mm 4 mps 752 mmHg 84%
    09:00 +10°C° 0.3 mm 5 mps 752 mmHg 83%
    10:00 +12°C° 0.3 mm 5 mps 752 mmHg 83%
    11:00 +10°C° 0.9 mm 5 mps 751 mmHg 85%
    12:00 +10°C° 0.9 mm 5 mps 751 mmHg 87%
    13:00 +10°C° 0.9 mm 5 mps 750 mmHg 89%
    14:00 +9°C° 2 mm 5 mps 750 mmHg 91%
    15:00 +9°C° 2 mm 6 mps 749 mmHg 92%
    16:00 +9°C° 2 mm 6 mps 749 mmHg 94%
    17:00 +8°C° 4.1 mm 6 mps 748 mmHg 93%
    18:00 +8°C° 4.1 mm 7 mps 748 mmHg 93%
    19:00 +7°C° 4.1 mm 8 mps 747 mmHg 92%
    20:00 +7°C° 5.8 mm 8 mps 747 mmHg 92%
    21:00 +7°C° 5.8 mm 8 mps 746 mmHg 92%
    22:00 +6°C° 5.8 mm 8 mps 746 mmHg 92%
    23:00 +6°C° 4.7 mm 8 mps 745 mmHg 92%

    Tomorrow, 26 February, Monday

    Time Temperature Precipitation Wind Pressure Humidity
    00:00 +6°C° 4.7 mm 8 mps 745 mmHg 91%
    01:00 +6°C° 4.7 mm 7 mps 745 mmHg 91%
    02:00 +6°C° 0.8 mm 7 mps 745 mmHg 90%
    03:00 +5°C° 0.8 mm 8 mps 745 mmHg 89%
    04:00 +5°C° 0.8 mm 8 mps 745 mmHg 88%
    05:00 +5°C° 0.3 mm 8 mps 745 mmHg 88%
    06:00 +5°C° 0.3 mm 8 mps 745 mmHg 88%
    07:00 +5°C° 0.3 mm 8 mps 746 mmHg 89%
    08:00 +5°C° 0.1 mm 8 mps 746 mmHg 86%
    09:00 +6°C° 0.1 mm 7 mps 746 mmHg 84%
    10:00 +8°C° 0.1 mm 7 mps 746 mmHg 82%
    11:00 +8°C° 0 mm 6 mps 746 mmHg 78%
    12:00 +9°C° 0 mm 5 mps 746 mmHg 75%
    13:00 +10°C° 0 mm 3 mps 746 mmHg 72%
    14:00 +10°C° 0.6 mm 3 mps 746 mmHg 76%
    15:00 +9°C° 0.6 mm 3 mps 746 mmHg 81%
    16:00 +8°C° 0.6 mm 3 mps 746 mmHg 85%
    17:00 +7°C° 0.6 mm 4 mps 746 mmHg 87%
    18:00 +7°C° 0.6 mm 4 mps 747 mmHg 90%
    19:00 +6°C° 0.6 mm 4 mps 747 mmHg 93%
    20:00 +6°C° 0.2 mm 5 mps 748 mmHg 92%
    21:00 +5°C° 0.2 mm 6 mps 748 mmHg 92%
    22:00 +5°C° 0.2 mm 7 mps 749 mmHg 92%
    23:00 +5°C° 0.1 mm 6 mps 749 mmHg 91%

    Day after tomorrow, 27 February, Tuesday

    Time Temperature Precipitation Wind Pressure Humidity
    00:00 +4°C° 0.1 mm 6 mps 750 mmHg 90%
    01:00 +4°C° 0.1 mm 6 mps 750 mmHg 89%
    02:00 +4°C° 0.1 mm 6 mps 750 mmHg 89%
    03:00 +5°C° 0.1 mm 5 mps 751 mmHg 88%
    04:00 +5°C° 0.1 mm 4 mps 751 mmHg 87%
    05:00 +5°C° 0 mm 3 mps 751 mmHg 86%
    06:00 +4°C° 0 mm 3 mps 752 mmHg 85%
    07:00 +5°C° 0 mm 2 mps 752 mmHg 83%
    08:00 +6°C° 0.1 mm 2 mps 752 mmHg 79%
    09:00 +7°C° 0.1 mm 2 mps 753 mmHg 75%
    10:00 +8°C° 0.1 mm 1 mps 753 mmHg 71%
    11:00 +8°C° 0 mm 2 mps 753 mmHg 71%
    12:00 +8°C° 0 mm 2 mps 753 mmHg 71%
    13:00 +9°C° 0 mm 2 mps 753 mmHg 70%
    14:00 +9°C° 0.1 mm 3 mps 752 mmHg 73%
    15:00 +9°C° 0.1 mm 3 mps 752 mmHg 75%
    16:00 +8°C° 0.1 mm 4 mps 752 mmHg 78%
    17:00 +7°C° 0.3 mm 5 mps 752 mmHg 81%
    18:00 +7°C° 0.3 mm 6 mps 752 mmHg 85%
    19:00 +6°C° 0.3 mm 7 mps 752 mmHg 88%
    20:00 +5°C° 0.7 mm 7 mps 751 mmHg 88%
    21:00 +5°C° 0.7 mm 8 mps 751 mmHg 88%
    22:00 +5°C° 0.7 mm 9 mps 750 mmHg 87%
    23:00 +5°C° 0.7 mm 8 mps 750 mmHg 88%

    28 February, Wednesday

    Time Temperature Precipitation Wind Pressure Humidity
    00:00 +6°C° 0.7 mm 7 mps 749 mmHg 89%
    01:00 +7°C° 0.7 mm 6 mps 749 mmHg 90%
    02:00 +7°C° 0.5 mm 6 mps 749 mmHg 91%
    03:00 +7°C° 0.5 mm 5 mps 749 mmHg 93%
    04:00 +7°C° 0.5 mm 4 mps 749 mmHg 94%
    05:00 +7°C° 0.2 mm 5 mps 749 mmHg 94%
    06:00 +7°C° 0.2 mm 6 mps 750 mmHg 94%
    07:00 +6°C° 0.2 mm 7 mps 751 mmHg 93%
    08:00 +6°C° 0 mm 7 mps 751 mmHg 88%
    09:00 +8°C° 0 mm 7 mps 752 mmHg 83%
    10:00 +8°C° 0 mm 7 mps 753 mmHg 77%
    11:00 +8°C° 0.1 mm 7 mps 753 mmHg 72%
    12:00 +9°C° 0.1 mm 7 mps 754 mmHg 67%
    13:00 +9°C° 0.1 mm 7 mps 755 mmHg 61%
    14:00 +8°C° 0.1 mm 7 mps 755 mmHg 64%
    15:00 +7°C° 0.1 mm 8 mps 756 mmHg 68%
    16:00 +6°C° 0.1 mm 8 mps 756 mmHg 71%
    17:00 +5°C° 0 mm 7 mps 757 mmHg 73%
    18:00 +4°C° 0 mm 7 mps 758 mmHg 76%
    19:00 +3°C° 0 mm 7 mps 758 mmHg 78%
    20:00 +3°C° 0 mm 6 mps 759 mmHg 78%
    21:00 +2°C° 0 mm 6 mps 759 mmHg 78%
    22:00 +2°C° 0 mm 5 mps 760 mmHg 77%
    23:00 +1°C° 0 mm 5 mps 760 mmHg 77%

    1 March, Thursday

    Time Temperature Precipitation Wind Pressure Humidity
    00:00 +1°C° 0 mm 4 mps 760 mmHg 76%
    01:00 +1°C° 0 mm 4 mps 761 mmHg 75%
    02:00 +1°C° 0 mm 4 mps 760 mmHg 74%
    03:00 +2°C° 0 mm 3 mps 760 mmHg 74%
    04:00 +2°C° 0 mm 3 mps 760 mmHg 73%
    05:00 +2°C° 0 mm 3 mps 761 mmHg 70%
    06:00 +2°C° 0 mm 3 mps 761 mmHg 68%
    07:00 +4°C° 0 mm 2 mps 761 mmHg 66%
    08:00 +4°C° 0 mm 3 mps 761 mmHg 59%
    09:00 +7°C° 0 mm 3 mps 761 mmHg 53%
    10:00 +9°C° 0 mm 3 mps 761 mmHg 46%
    11:00 +9°C° 0 mm 3 mps 760 mmHg 47%
    12:00 +10°C° 0 mm 3 mps 760 mmHg 48%
    13:00 +10°C° 0 mm 4 mps 759 mmHg 49%
    14:00 +10°C° 0 mm 4 mps 759 mmHg 53%
    15:00 +9°C° 0 mm 5 mps 759 mmHg 56%
    16:00 +9°C° 0 mm 5 mps 758 mmHg 60%
    17:00 +8°C° 0.1 mm 6 mps 758 mmHg 64%
    18:00 +8°C° 0.1 mm 6 mps 758 mmHg 68%
    19:00 +7°C° 0.1 mm 6 mps 758 mmHg 72%
    20:00 +6°C° 0.1 mm 7 mps 758 mmHg 73%
    21:00 +6°C° 0.1 mm 7 mps 758 mmHg 74%
    22:00 +6°C° 0.1 mm 7 mps 757 mmHg 75%
    23:00 +6°C° 0.1 mm 8 mps 757 mmHg 75%

    2 March, Friday

    Time Temperature Precipitation Wind Pressure Humidity
    00:00 +6°C° 0.1 mm 8 mps 756 mmHg 75%
    01:00 +6°C° 0.1 mm 8 mps 756 mmHg 75%
    02:00 +6°C° 0.1 mm 9 mps 755 mmHg 75%
    03:00 +6°C° 0.1 mm 9 mps 755 mmHg 75%
    04:00 +6°C° 0.1 mm 9 mps 754 mmHg 75%
    05:00 +6°C° 0.3 mm 9 mps 754 mmHg 78%
    06:00 +6°C° 0.3 mm 9 mps 754 mmHg 80%
    07:00 +6°C° 0.3 mm 9 mps 753 mmHg 82%
    08:00 +7°C° 0.5 mm 9 mps 753 mmHg 83%
    09:00 +8°C° 0.5 mm 10 mps 753 mmHg 84%
    10:00 +8°C° 0.5 mm 10 mps 752 mmHg 85%
    11:00 +9°C° 0.2 mm 10 mps 752 mmHg 83%
    12:00 +11°C° 0.2 mm 9 mps 751 mmHg 81%
    13:00 +12°C° 0.2 mm 9 mps 751 mmHg 80%
    14:00 +12°C° 0.4 mm 9 mps 750 mmHg 80%
    15:00 +12°C° 0.4 mm 9 mps 750 mmHg 81%
    16:00 +12°C° 0.4 mm 9 mps 749 mmHg 82%
    17:00 +11°C° 1.4 mm 9 mps 749 mmHg 85%
    18:00 +11°C° 1.4 mm 9 mps 749 mmHg 88%
    19:00 +10°C° 1.4 mm 9 mps 749 mmHg 91%
    20:00 +10°C° 1.2 mm 8 mps 749 mmHg 90%
    21:00 +10°C° 1.2 mm 7 mps 749 mmHg 90%
    22:00 +10°C° 1.2 mm 6 mps 749 mmHg 90%
    23:00 +10°C° 0.7 mm 6 mps 749 mmHg 90%
    Show more